DW7589 Weather Reports


Display with metric or nautical units.
time (UTC)temp
F
wind
direction
speed
MPH
gust
MPH
rain 1hr
in
rain 24hr
in
rain mn
in
humidity
%
barometer
mb
20200126052504 57 170 6.0 9.0 0.00 0.00 0.00 93 1016.6
20200126051504 57 172 6.0 8.0 0.00 0.00 0.00 93 1016.6
20200126051003 57 172 6.0 9.0 0.00 0.00 0.00 93 1016.6
20200126050503 57 170 7.0 10.0 0.00 0.00 0.00 93 1016.7
20200126050005 57 169 7.0 10.0 0.00 0.00 0.00 93 1016.7
20200126045503 57 171 7.0 10.0 0.00 0.00 0.00 93 1016.7
20200126045004 57 172 8.0 10.0 0.00 0.00 0.00 93 1016.6
20200126044003 57 173 8.0 12.0 0.00 0.00 0.00 92 1016.6
20200126043504 57 173 8.0 11.0 0.00 0.00 0.00 92 1016.6
20200126043003 57 173 7.0 10.0 0.00 0.00 0.00 92 1016.7
20200126042004 57 172 7.0 12.0 0.00 0.00 0.00 92 1016.8
20200126040504 58 172 7.0 10.0 0.00 0.00 0.00 92 1016.8
20200126035503 58 174 7.0 10.0 0.00 0.00 0.00 91 1016.8
20200126035004 58 173 7.0 11.0 0.00 0.00 0.00 91 1016.8
20200126033504 58 173 8.0 11.0 0.00 0.00 0.00 90 1016.8
20200126033003 58 172 8.0 11.0 0.00 0.00 0.00 89 1016.7
20200126031503 58 173 11.0 15.0 0.00 0.00 0.00 88 1016.5
20200126030503 58 174 12.0 18.0 0.00 0.00 0.00 87 1016.2
20200126030004 59 173 12.0 18.0 0.00 0.00 0.00 86 1016.2
20200126023003 60 173 6.0 9.0 0.00 0.00 0.00 83 1016.5
20200126022003 59 174 6.0 9.0 0.00 0.00 0.00 83 1016.6
20200126021004 59 177 5.0 7.0 0.00 0.00 0.00 84 1016.6
20200126020503 59 173 6.0 9.0 0.00 0.00 0.00 84 1016.7
20200126020004 59 172 7.0 10.0 0.00 0.00 0.00 83 1016.7
20200126014004 60 171 8.0 12.0 0.00 0.00 0.00 80 1016.7
20200126013503 61 171 9.0 15.0 0.00 0.00 0.00 78 1016.7
20200126013004 61 170 8.0 15.0 0.00 0.00 0.00 77 1016.7
20200126012004 61 167 5.0 9.0 0.00 0.00 0.00 76 1016.6
20200126011004 61 162 4.0 10.0 0.00 0.00 0.00 75 1016.6
20200126010503 61 159 4.0 7.0 0.00 0.00 0.00 74 1016.6
20200126005004 61 160 4.0 6.0 0.00 0.00 0.00 73 1016.5
20200126004503 61 167 4.0 6.0 0.00 0.00 0.00 73 1016.4
20200126004003 61 159 3.0 6.0 0.00 0.00 0.00 73 1016.4
20200126002504 61 146 2.0 5.0 0.00 0.00 0.00 73 1016.2
20200126000503 62 148 3.0 5.0 0.00 0.00 0.00 71 1016.0
20200126000004 62 149 3.0 6.0 0.00 0.00 0.00 71 1016.0
20200125235503 62 151 4.0 6.0 0.00 0.00 0.00 71 1015.9
20200125234003 62 155 4.0 6.0 0.00 0.00 0.00 70 1015.9
20200125233503 62 156 4.0 6.0 0.00 0.00 0.00 69 1015.9
20200125230503 63 174 6.0 8.0 0.00 0.00 0.00 68 1016.1
20200125230004 63 173 6.0 9.0 0.00 0.00 0.00 68 1016.1
20200125225503 63 172 7.0 11.0 0.00 0.00 0.00 68 1016.1
20200125224003 63 173 7.0 12.0 0.00 0.00 0.00 67 1016.2
20200125223003 63 170 8.0 11.0 0.00 0.00 0.00 66 1016.2
20200125222004 64 170 8.0 12.0 0.00 0.00 0.00 66 1016.3
20200125220503 64 172 7.0 11.0 0.00 0.00 0.00 66 1016.3
20200125220004 64 171 8.0 12.0 0.00 0.00 0.00 66 1016.2
20200125215504 64 174 8.0 12.0 0.00 0.00 0.00 66 1016.3
20200125215003 64 174 8.0 12.0 0.00 0.00 0.00 65 1016.4
20200125213503 64 172 9.0 14.0 0.00 0.00 0.00 64 1016.2
20200125212503 64 171 9.0 15.0 0.00 0.00 0.00 65 1016.1
20200125211503 64 174 8.0 12.0 0.00 0.00 0.00 65 1016.1
20200125211004 64 174 9.0 14.0 0.00 0.00 0.00 65 1016.3
20200125210503 64 172 10.0 16.0 0.00 0.00 0.00 64 1016.3
20200125210004 64 171 9.0 17.0 0.00 0.00 0.00 63 1016.3
20200125205503 64 171 8.0 17.0 0.00 0.00 0.00 64 1016.4
20200125205003 64 171 8.0 14.0 0.00 0.00 0.00 64 1016.5
20200125204003 64 177 9.0 16.0 0.00 0.00 0.00 65 1016.5
20200125203504 64 173 9.0 16.0 0.00 0.00 0.00 64 1016.6
20200125202503 63 169 9.0 15.0 0.00 0.00 0.00 64 1016.7
20200125195504 63 173 10.0 16.0 0.00 0.00 0.00 64 1016.6
20200125195003 63 174 11.0 20.0 0.00 0.00 0.00 64 1016.8
20200125193503 63 172 9.0 15.0 0.00 0.00 0.00 64 1017.0
20200125191503 62 167 7.0 11.0 0.00 0.00 0.00 65 1017.3
20200125190503 62 171 9.0 14.0 0.00 0.00 0.00 64 1017.5
20200125190003 61 169 10.0 16.0 0.00 0.00 0.00 63 1017.8
20200125185504 61 171 10.0 16.0 0.00 0.00 0.00 63 1017.8
20200125185003 61 171 8.0 16.0 0.00 0.00 0.00 63 1018.1
20200125184504 61 169 8.0 14.0 0.00 0.00 0.00 62 1018.2
20200125184003 61 169 8.0 14.0 0.00 0.00 0.00 63 1018.3
20200125182504 61 168 9.0 16.0 0.00 0.00 0.00 62 1018.7
20200125182003 61 171 9.0 16.0 0.00 0.00 0.00 61 1018.9
20200125181504 61 172 8.0 13.0 0.00 0.00 0.00 61 1019.0
20200125180503 60 170 8.0 12.0 0.00 0.00 0.00 61 1019.3
20200125180004 60 166 8.0 12.0 0.00 0.00 0.00 60 1019.4
20200125175004 60 167 8.0 14.0 0.00 0.00 0.00 60 1019.3
20200125174503 60 169 9.0 16.0 0.00 0.00 0.00 60 1019.2
20200125173003 60 165 8.0 16.0 0.00 0.00 0.00 58 1019.6
20200125171503 59 162 8.0 12.0 0.00 0.00 0.00 61 1019.6
20200125171004 59 168 9.0 15.0 0.00 0.00 0.00 61 1019.6
20200125170504 58 174 11.0 17.0 0.00 0.00 0.00 62 1019.4
20200125165503 58 173 10.0 15.0 0.00 0.00 0.00 64 1019.5
20200125164503 56 161 6.0 11.0 0.00 0.00 0.00 68 1019.7
20200125164004 55 165 6.0 11.0 0.00 0.00 0.00 68 1019.8
20200125163004 54 175 5.0 9.0 0.00 0.00 0.00 68 1020.2
20200125160502 51 164 4.0 7.0 0.00 0.00 0.00 72 1020.5
20200125160001 50 166 4.0 6.0 0.00 0.00 0.00 71 1020.7
20200125155501 50 165 4.0 6.0 0.00 0.00 0.00 72 1020.7
20200125155002 50 163 4.0 6.0 0.00 0.00 0.00 73 1020.7
20200125154002 49 158 3.0 6.0 0.00 0.00 0.00 75 1020.7
20200125153002 48 154 3.0 6.0 0.00 0.00 0.00 76 1020.7
20200125152501 47 146 3.0 6.0 0.00 0.00 0.00 78 1020.7
20200125152001 46 140 3.0 5.0 0.00 0.00 0.00 79 1020.5
20200125151501 46 138 3.0 5.0 0.00 0.00 0.00 80 1020.5
20200125145501 44 138 2.0 4.0 0.00 0.00 0.00 83 1020.2
20200125144501 44 138 2.0 4.0 0.00 0.00 0.00 84 1020.1
20200125144002 43 138 2.0 4.0 0.00 0.00 0.00 84 1020.1
20200125143501 43 138 2.0 4.0 0.00 0.00 0.00 85 1020.3
20200125143001 43 138 1.0 3.0 0.00 0.00 0.00 85 1020.4
20200125142002 42 138 1.0 3.0 0.00 0.00 0.00 86 1020.5
20200125141001 41 0 0.0 1.0 0.00 0.00 0.00 87 1020.5
20200125140001 40 0 0.0 0.0 0.00 0.00 0.00 87 1020.3
20200125135502 39 0 0.0 0.0 0.00 0.00 0.00 86 1020.3
20200125135001 39 0 0.0 0.0 0.00 0.00 0.00 86 1020.4
20200125133002 39 0 0.0 1.0 0.00 0.00 0.00 86 1020.2
20200125132001 39 0 0.0 1.0 0.00 0.00 0.00 87 1020.2
20200125131502 38 0 0.0 1.0 0.00 0.00 0.00 87 1020.2
20200125130501 38 0 0.0 0.0 0.00 0.00 0.00 85 1020.3
20200125130001 38 0 0.0 0.0 0.00 0.00 0.00 86 1020.2
20200125125501 38 0 0.0 0.0 0.00 0.00 0.00 86 1020.3
20200125125002 38 0 0.0 0.0 0.00 0.00 0.00 86 1020.3
20200125124501 38 0 0.0 0.0 0.00 0.00 0.00 86 1020.2
20200125124002 39 0 0.0 0.0 0.00 0.00 0.00 85 1020.1
20200125123501 39 0 0.0 0.0 0.00 0.00 0.00 85 1020.0
20200125122501 39 0 0.0 0.0 0.00 0.00 0.00 84 1019.8
20200125122001 39 0 0.0 0.0 0.00 0.00 0.00 84 1019.8
20200125120502 39 0 0.0 0.0 0.00 0.00 0.00 83 1019.6
20200125120001 40 0 0.0 0.0 0.00 0.00 0.00 82 1019.7
20200125115501 40 0 0.0 0.0 0.00 0.00 0.00 82 1019.6
20200125114501 40 0 0.0 0.0 0.00 0.00 0.00 81 1019.5
20200125112501 41 0 0.0 0.0 0.00 0.00 0.00 79 1019.2
20200125112001 41 0 0.0 0.0 0.00 0.00 0.00 79 1019.2
20200125110502 41 0 0.0 0.0 0.00 0.00 0.00 78 1019.2
20200125110001 42 0 0.0 0.0 0.00 0.00 0.00 76 1019.3
20200125103501 43 0 0.0 0.0 0.00 0.00 0.00 74 1019.3
20200125103001 43 0 0.0 0.0 0.00 0.00 0.00 74 1019.3
20200125102502 44 0 0.0 0.0 0.00 0.00 0.00 74 1019.3
20200125095002 44 0 0.0 2.0 0.00 0.00 0.00 73 1019.6
20200125094501 44 0 0.0 2.0 0.00 0.00 0.00 73 1019.7
20200125094001 44 0 0.0 1.0 0.00 0.00 0.00 73 1019.8
20200125093502 44 0 0.0 1.0 0.00 0.00 0.00 72 1019.7
20200125093001 44 0 0.0 1.0 0.00 0.00 0.00 72 1019.8
20200125091002 44 0 0.0 1.0 0.00 0.00 0.00 72 1019.9
20200125085501 44 0 0.0 1.0 0.00 0.00 0.00 71 1020.0
20200125084001 44 138 1.0 3.0 0.00 0.00 0.00 72 1020.0
20200125083502 44 138 1.0 3.0 0.00 0.00 0.00 72 1020.0
20200125083001 44 138 2.0 3.0 0.00 0.00 0.00 72 1020.0
20200125082001 44 138 2.0 3.0 0.00 0.00 0.00 73 1020.0
20200125081501 44 138 2.0 3.0 0.00 0.00 0.00 74 1020.0
20200125081002 44 138 2.0 3.0 0.00 0.00 0.00 74 1020.0
20200125080501 44 137 2.0 3.0 0.00 0.00 0.00 74 1020.0
20200125080001 44 138 2.0 3.0 0.00 0.00 0.00 72 1020.1
20200125075501 44 137 1.0 3.0 0.00 0.00 0.00 72 1020.1
20200125075001 45 0 0.0 2.0 0.00 0.00 0.00 71 1020.0
20200125074502 45 0 0.0 1.0 0.00 0.00 0.00 71 1019.9
20200125074001 45 0 0.0 0.0 0.00 0.00 0.00 70 1019.8
20200125073001 45 0 0.0 0.0 0.00 0.00 0.00 69 1019.7
20200125072501 46 0 0.0 0.0 0.00 0.00 0.00 68 1019.7
20200125072001 46 0 0.0 1.0 0.00 0.00 0.00 68 1019.7
20200125071001 46 138 1.0 4.0 0.00 0.00 0.00 67 1020.0
20200125070502 46 138 2.0 4.0 0.00 0.00 0.00 68 1020.0
20200125065502 47 137 3.0 4.0 0.00 0.00 0.00 67 1020.1
20200125063501 46 95 1.0 3.0 0.00 0.00 0.00 68 1020.2
20200125062502 46 94 1.0 3.0 0.00 0.00 0.00 69 1020.2
20200125061502 46 94 2.0 3.0 0.00 0.00 0.00 69 1020.2
20200125060001 46 95 1.0 2.0 0.00 0.00 0.00 69 1020.3
20200125055001 46 94 1.0 2.0 0.00 0.00 0.00 68 1020.2
20200125054001 46 94 1.0 3.0 0.00 0.00 0.00 68 1020.2
20200125053002 47 94 2.0 3.0 0.00 0.00 0.00 67 1020.2